CAPE
0 0 0 0 0 0 0 0 0 0 2 6 16 12 19 41 62 54 290 499 535 399 375 367 393 305 183 120 41 94 94 182 424 531 523 822 1176 1347 1485 975 782 834 240 40
0 0 0 0 0 0 0 0 0 0 5 4 0 0 5 20 29 26 36 45 208 229 239 383 381 380 415 459 515 437 391 374 647 901 1090 1276 1290 1244 1220 802 725 654 576 232
0 0 0 0 0 0 0 0 0 0 3 0 0 0 0 0 11 10 16 13 22 81 87 189 249 327 577 592 603 575 587 833 865 1058 1313 1481 1407 1427 981 723 530 676 553 190
0 0 0 0 0 0 0 0 0 0 0 0 0 0 0 0 1 25 29 16 2 5 59 131 151 175 504 637 666 704 701 979 1242 1243 1414 1326 1180 1054 1312 1144 708 336 179 8
0 0 0 0 0 0 0 0 0 0 0 0 0 0 0 0 0 24 23 19 30 34 35 57 85 105 232 471 613 680 693 702 1105 1412 1415 1335 1195 1147 1262 1150 745 471 146 0
0 0 0 0 0 0 0 0 0 0 0 0 0 0 0 0 0 0 29 49 51 28 23 55 67 80 164 312 513 627 673 798 993 1350 1437 1371 1218 1506 1637 1549 1539 1182 605 298
0 0 0 0 0 0 0 0 0 0 0 0 0 0 0 0 0 0 3 75 116 136 87 64 85 134 174 273 486 663 776 808 1032 1235 1411 1413 1194 1352 1720 1767 1925 1379 1091 1183
0 0 0 0 0 0 0 0 0 0 0 0 0 0 0 0 0 0 0 8 82 116 135 164 158 180 190 304 498 724 879 928 1157 1473 1504 1601 1683 1813 1781 2657 2020 1544 1316 912
0 0 0 0 0 0 0 0 0 0 0 0 0 0 0 0 0 0 0 3 32 121 155 302 303 353 406 392 809 911 1111 1189 1420 1599 2107 2041 2394 2439 2018 1859 1681 1396 733 358
0 0 0 0 0 0 0 0 0 0 0 0 0 0 0 0 0 0 0 0 36 72 175 322 492 560 711 811 1034 1463 1905 2098 2226 1507 307 379 350 956 1120 431 308 618 512 280
0 0 0 0 0 0 0 0 0 0 0 0 0 0 0 0 0 0 34 151 43 37 93 279 518 680 859 959 933 1160 1494 1602 434 433 102 118 15 35 369 496 135 1 139 251
0 0 0 0 0 0 0 0 0 0 0 0 0 0 0 0 0 0 0 52 101 69 41 252 523 744 923 738 428 13 3 91 225 3 0 0 0 0 0 365 227 5 0 0
0 0 0 0 0 0 0 0 0 0 0 0 0 0 0 0 0 0 7 164 158 164 254 364 517 671 598 159 8 0 0 0 74 47 30 6 0 0 0 21 29 16 0 159
0 0 0 0 0 0 0 0 0 0 0 0 0 0 0 0 0 0 6 174 184 288 341 324 395 275 38 93 74 0 0 0 7 134 49 0 0 0 0 0 71 54 105 460
0 0 0 0 0 0 0 0 0 0 0 0 0 0 0 0 0 0 111 145 256 343 172 111 31 0 127 227 107 5 0 0 25 99 145 111 59 0 0 45 154 369 68 12
0 0 0 0 0 0 0 0 0 0 0 0 0 0 0 0 0 3 425 566 505 527 218 14 0 51 436 201 151 176 120 85 69 59 51 2 0 38 94 44 0 0 23 45
0 0 0 0 0 0 0 0 0 0 0 0 0 0 0 0 0 38 606 617 725 754 353 72 48 483 363 153 49 5 7 5 0 0 0 0 0 0 0 0 0 0 0 0
0 0 0 0 0 0 0 0 0 0 0 0 0 0 0 0 0 539 791 748 1131 806 490 341 294 19 0 0 0 0 0 0 0 0 0 0 0 0 0 0 0 0 0 0
0 0 0 0 0 0 0 0 0 0 0 0 0 0 0 57 282 708 927 850 850 533 316 79 0 0 0 0 0 0 0 0 0 0 0 0 0 0 0 0 0 0 12 12
0 0 0 0 0 0 0 0 0 0 0 2 0 0 0 0 0 345 658 556 333 227 68 0 0 0 0 0 0 0 0 0 0 0 0 0 0 0 0 0 0 0 0 0
0 0 0 0 0 0 0 0 0 0 0 8 0 0 0 1 155 539 433 323 156 54 0 0 0 0 0 0 0 0 0 0 0 0 0 0 0 0 0 0 0 0 0 0
0 0 0 0 0 0 0 0 0 0 0 0 12 37 137 271 429 359 281 184 55 0 0 0 0 0 0 0 0 0 0 0 0 0 0 0 0 0 0 0 0 0 0 0
3 4 0 0 0 0 0 0 0 0 25 96 142 275 207 246 270 163 89 19 1 0 0 0 0 0 0 0 0 0 0 0 0 0 0 0 0 0 0 0 0 0 0 0
1 95 50 38 51 0 1 0 0 0 76 247 364 371 347 270 160 76 3 0 0 0 0 0 0 0 0 0 0 0 0 0 0 0 0 0 0 0 0 0 4 3 2 0
0 30 212 180 147 16 11 36 67 115 222 378 487 355 296 296 139 17 0 0 0 0 0 0 0 0 0 0 0 0 0 0 0 0 0 0 1 0 0 2 2 0 1 0
1 0 65 113 109 31 142 432 298 198 277 328 312 303 167 177 18 0 0 0 0 0 0 0 0 0 0 0 0 0 0 0 0 1 0 1 1 1 0 0 0 0 0 0
CIN
0 0 0 0 0 0 0 0 0 0 -123 -144 -153 -196 -254 -289 -305 -343 -303 -265 -250 -278 -298 -295 -268 -268 -270 -258 -326 -269 -258 -215 -163 -127 -111 -72 -58 -33 -37 -81 -96 -92 -163 -239
0 0 0 0 0 0 0 0 0 0 -129 -97 0 0 -192 -268 -254 -290 -315 -326 -308 -325 -324 -268 -295 -280 -250 -233 -223 -218 -213 -187 -129 -84 -74 -60 -41 -36 -62 -113 -116 -132 -153 -161
0 0 0 0 0 0 0 0 0 0 -71 0 0 0 0 0 -208 -268 -326 -338 -347 -343 -350 -322 -315 -309 -261 -245 -224 -226 -213 -152 -114 -105 -64 -41 -45 -54 -75 -100 -132 -152 -166 -202
0 0 0 0 0 0 0 0 0 0 0 0 0 0 0 0 -28 -255 -293 -285 -117 -333 -352 -334 -348 -345 -299 -277 -262 -249 -233 -134 -94 -84 -44 -43 -52 -58 -64 -74 -136 -162 -213 -62
0 0 0 0 0 0 0 0 0 0 0 0 0 0 0 0 0 -282 -290 -346 -364 -411 -399 -372 -372 -366 -344 -327 -293 -261 -192 -190 -149 -81 -62 -60 -59 -70 -67 -75 -160 -197 -250 0
0 0 0 0 0 0 0 0 0 0 0 0 0 0 0 0 0 0 -284 -313 -347 -368 -388 -372 -362 -390 -382 -363 -336 -294 -252 -196 -156 -117 -99 -76 -73 -61 -51 -56 -48 -117 -198 -219
0 0 0 0 0 0 0 0 0 0 0 0 0 0 0 0 0 0 -123 -280 -307 -334 -345 -331 -361 -363 -403 -391 -386 -331 -292 -243 -191 -143 -117 -101 -89 -71 -43 -28 -30 -43 -54 -69
0 0 0 0 0 0 0 0 0 0 0 0 0 0 0 0 0 0 0 -100 -265 -276 -299 -309 -315 -338 -334 -389 -388 -345 -281 -218 -149 -120 -112 -100 -90 -72 -53 -26 -23 -21 -36 -95
0 0 0 0 0 0 0 0 0 0 0 0 0 0 0 0 0 0 0 -41 -216 -222 -267 -246 -272 -283 -316 -282 -273 -201 -188 -168 -136 -120 -94 -69 -59 -37 -22 -26 -26 -45 -60 -102
0 0 0 0 0 0 0 0 0 0 0 0 0 0 0 0 0 0 0 0 -171 -214 -222 -213 -256 -297 -282 -268 -230 -186 -155 -121 -54 -88 -228 -147 -115 -73 -43 -117 -112 -86 -68 -179
0 0 0 0 0 0 0 0 0 0 0 0 0 0 0 0 0 0 -130 -161 -150 -211 -204 -240 -267 -268 -282 -265 -288 -314 -265 -139 -260 -264 -312 -264 -33 -178 -68 -67 -99 -58 -197 -139
0 0 0 0 0 0 0 0 0 0 0 0 0 0 0 0 0 0 0 -255 -259 -228 -261 -244 -262 -296 -294 -316 -382 -577 -34 -414 -337 -23 0 0 0 0 0 -49 -113 -209 0 0
0 0 0 0 0 0 0 0 0 0 0 0 0 0 0 0 0 0 -285 -301 -277 -255 -276 -344 -294 -312 -346 -456 -418 -1 0 0 -435 -362 -441 -98 0 0 0 -89 -212 -253 0 -156
0 0 0 0 0 0 0 0 0 0 0 0 0 0 0 0 0 0 -170 -318 -325 -276 -307 -388 -401 -461 -546 -559 -517 -1 0 0 -165 -400 -437 0 0 0 0 0 -92 -129 -100 -58
0 0 0 0 0 0 0 0 0 0 0 0 0 0 0 0 0 0 -312 -305 -315 -367 -433 -504 -581 -11 -534 -449 -474 -414 0 0 -288 -348 -314 -285 -232 0 0 -108 -73 -75 -154 -115
0 0 0 0 0 0 0 0 0 0 0 0 0 0 0 0 0 -227 -280 -302 -357 -378 -474 -333 0 -478 -313 -385 -418 -389 -361 -304 -277 -276 -261 -132 0 -95 -64 -118 0 0 -145 -145
0 0 0 0 0 0 0 0 0 0 0 0 0 0 0 0 0 -205 -302 -346 -352 -400 -454 -551 -492 -322 -328 -403 -345 -324 -281 -266 0 0 0 0 0 0 0 0 0 0 0 0
0 0 0 0 0 0 0 0 0 0 0 0 0 0 0 0 0 -323 -362 -357 -399 -444 -473 -459 -447 -247 0 0 0 0 0 0 0 0 0 0 0 0 0 0 0 0 0 0
0 0 0 0 0 0 0 0 0 0 0 0 0 0 0 -405 -377 -363 -416 -416 -456 -527 -537 -622 0 0 0 0 0 0 0 0 0 0 0 0 0 0 0 0 0 0 -12 -14
0 0 0 0 0 0 0 0 0 0 -10 -171 0 0 0 0 0 -373 -518 -554 -588 -609 -658 0 0 0 0 0 0 0 0 0 0 0 0 0 0 0 0 0 0 0 0 0
0 0 0 0 0 0 0 0 0 0 0 -233 0 0 0 -71 -332 -622 -624 -612 -644 -670 0 0 0 0 0 0 0 0 0 0 0 0 0 0 0 0 0 0 0 0 0 0
0 0 0 0 0 0 0 0 0 0 0 -28 -228 -396 -436 -501 -624 -673 -662 -672 -718 -279 0 0 0 0 0 0 0 0 0 0 0 0 0 0 0 0 0 0 0 0 0 0
-86 -42 0 0 0 0 0 0 0 0 -251 -360 -296 -488 -502 -559 -634 -717 -772 -756 -315 0 0 0 0 0 0 0 0 0 0 0 0 0 0 0 0 0 0 0 0 0 0 0
-30 -120 -58 -46 -85 -9 -33 0 0 -29 -223 -389 -450 -510 -559 -615 -717 -752 -766 0 0 0 0 0 0 0 0 0 0 0 0 0 0 0 0 0 0 0 0 0 -23 -19 -16 -1
0 -86 -35 -60 -164 -202 -250 -224 -241 -333 -407 -493 -560 -551 -562 -573 -645 -482 0 0 0 0 0 0 0 0 0 0 0 0 0 0 0 0 0 -3 -12 0 0 -38 -17 0 -6 0
-87 0 -36 -69 -141 -137 -225 -323 -353 -282 -364 -428 -482 -592 -628 -573 -698 0 0 0 0 0 0 0 0 0 0 0 0 0 0 0 0 -2 -2 -13 -21 -15 0 0 0 0 0 0
Wind_Speed
24 27 30 29 24 21 20 19 18 28 26 22 17 19 24 25 23 23 23 24 23 22 23 24 24 24 25 25 25 25 24 24 22 21 21 19 18 17 15 11 9 8 4 11
27 32 31 26 23 21 20 19 21 27 25 23 21 19 23 25 24 24 23 22 21 21 21 23 23 23 23 24 24 23 23 22 21 19 18 17 16 16 13 10 10 9 8 9
34 33 23 26 24 21 18 15 23 26 26 22 21 20 22 24 23 22 21 20 20 21 21 21 22 22 22 22 22 22 21 20 19 17 14 12 9 10 11 12 9 9 11 12
32 35 30 26 25 22 20 18 19 22 21 18 21 16 22 26 24 23 23 21 19 19 19 20 21 20 20 21 21 19 18 16 15 15 13 11 12 13 13 11 12 12 12 15
30 31 32 29 27 22 23 17 12 18 16 12 24 21 17 24 25 26 26 25 22 19 17 19 20 20 20 19 18 18 17 15 13 13 13 11 10 11 11 13 9 11 12 13
36 30 27 31 29 27 19 20 13 10 7 16 18 16 13 19 25 25 26 26 25 22 20 19 18 16 16 16 16 15 13 13 12 13 12 11 9 7 6 12 16 7 7 8
34 38 38 32 31 21 15 14 16 21 5 19 17 22 24 17 22 26 25 24 25 24 22 20 18 16 13 13 14 11 12 11 10 10 10 8 6 4 1 2 7 5 1 9
27 30 33 25 13 9 21 10 5 6 7 6 25 17 24 17 19 22 22 20 21 21 20 18 18 17 16 13 11 9 11 6 5 5 4 3 2 4 2 2 6 13 23 25
22 29 27 25 23 11 17 15 12 11 14 20 18 12 11 11 12 12 15 16 17 18 17 17 17 16 13 6 4 1 5 2 2 4 7 10 10 8 10 22 30 17 19 24
23 28 32 35 22 18 13 18 15 17 14 5 16 8 8 10 10 10 9 9 12 12 13 13 13 6 5 10 7 6 2 7 14 12 9 18 27 26 22 9 30 14 7 12
32 26 27 23 22 14 18 18 16 15 12 8 17 14 7 8 12 9 11 13 9 5 6 4 5 7 9 9 4 9 9 3 9 3 7 9 20 22 8 8 26 23 18 18
30 24 37 41 36 28 20 15 19 16 15 13 14 15 11 7 7 8 10 13 15 15 7 7 9 9 8 5 2 6 9 7 5 6 4 8 9 11 13 12 15 20 17 24
25 33 38 38 33 26 26 21 18 19 20 15 14 13 6 4 6 7 8 12 14 17 15 12 10 10 7 5 7 10 9 8 7 8 9 3 5 3 11 10 10 20 17 21
22 29 34 36 28 21 25 20 18 18 22 20 17 12 4 2 1 5 7 10 12 14 14 13 11 10 11 12 13 11 10 10 11 12 9 8 7 12 11 9 11 14 14 20
28 32 32 35 33 28 24 23 18 18 19 21 23 13 10 7 3 2 5 8 10 12 13 13 14 14 15 17 17 16 14 11 14 16 16 13 11 12 9 8 13 16 20 23
37 36 30 35 35 29 29 29 28 26 23 25 24 16 11 8 3 2 2 4 7 10 11 13 13 15 17 17 18 17 16 15 15 16 17 16 16 15 14 15 18 22 24 26
28 37 32 33 32 25 31 25 23 26 25 22 22 19 11 10 8 5 1 3 4 6 9 12 15 17 17 17 17 17 17 16 17 18 18 18 17 17 20 23 24 25 26 26
28 32 33 33 28 41 36 22 19 19 22 22 24 11 12 10 6 3 3 4 4 6 9 11 13 15 17 18 19 19 19 19 19 20 21 22 22 22 23 23 23 24 25 26
22 23 32 37 33 31 36 28 23 23 27 23 12 7 8 7 3 6 1 4 4 6 8 10 12 14 16 17 18 18 19 19 20 22 24 25 27 28 28 27 27 26 26 26
22 24 28 29 35 39 33 31 27 25 33 17 8 13 13 11 11 7 3 2 3 6 7 10 11 14 16 17 18 19 21 24 27 28 29 28 27 28 27 27 27 27 27 27
29 28 31 30 32 33 29 30 29 35 29 16 13 14 15 13 11 7 4 2 4 6 8 10 12 14 16 17 18 21 23 26 27 29 29 30 29 29 28 29 28 28 29 29
29 29 30 30 32 37 21 20 21 20 22 17 15 13 11 7 7 7 5 5 3 5 7 9 12 15 18 19 21 24 26 27 30 31 31 32 31 30 30 29 30 30 31 32
31 25 27 28 31 22 20 22 21 12 12 17 16 13 12 10 8 7 4 3 3 4 7 9 13 17 19 21 23 26 27 29 31 32 31 30 30 30 30 31 33 32 34 33
30 24 21 20 22 22 18 14 11 7 7 12 14 14 12 11 8 5 1 2 3 5 7 10 15 19 21 22 25 26 28 29 30 31 31 30 31 32 31 32 32 34 33 32
29 26 23 23 20 15 18 13 7 6 7 9 10 12 11 9 6 4 1 1 4 8 10 14 17 20 21 23 26 27 29 29 30 30 29 29 29 31 32 32 31 34 31 30
24 24 23 24 20 18 14 8 7 9 11 12 12 9 7 8 6 3 0 3 6 9 12 15 18 19 21 23 25 26 28 29 29 28 28 28 28 29 30 31 31 30 31 28
Wind_Direction
223 201 177 177 174 191 213 217 220 179 168 157 134 127 143 146 141 137 132 141 140 140 145 144 151 150 151 153 156 157 156 159 156 158 167 175 182 189 184 155 96 87 138 194
214 186 185 193 201 202 220 230 196 173 155 177 152 140 149 152 153 149 143 140 140 140 139 148 146 144 151 156 159 160 164 164 162 157 158 162 166 184 177 141 162 165 177 172
201 190 225 195 209 210 231 191 141 156 152 196 136 155 160 168 162 159 159 152 148 143 141 143 147 149 152 156 159 162 165 165 163 160 150 145 111 139 152 171 156 168 177 173
220 218 216 212 212 217 216 171 192 146 137 155 166 170 171 172 170 170 171 164 160 153 151 151 153 154 152 159 159 161 159 156 156 161 158 154 161 172 170 163 170 171 153 171
228 223 212 211 204 217 173 211 345 132 139 110 179 215 184 169 180 184 184 181 176 168 159 157 157 160 160 156 159 163 163 159 153 158 163 162 159 167 166 169 126 140 148 163
227 239 244 218 232 206 246 253 326 360 39 172 177 182 175 170 192 186 187 188 185 178 172 168 164 159 158 160 163 164 164 165 162 166 165 166 165 150 143 179 202 153 137 155
239 232 225 247 242 256 274 296 286 266 241 198 211 218 224 193 189 187 185 189 188 185 182 177 173 168 162 166 172 168 172 173 168 166 173 169 170 167 136 170 194 181 136 346
246 242 236 250 277 261 261 293 331 8 4 165 275 232 232 201 182 182 183 186 184 187 187 186 183 178 177 176 178 179 170 167 157 165 182 194 259 316 280 278 329 327 312 313
249 251 251 259 263 263 260 276 291 311 317 321 345 16 55 77 126 144 175 185 187 190 189 192 189 188 185 139 75 121 170 260 161 300 306 300 310 317 314 310 302 322 318 325
257 252 250 242 266 260 242 265 289 294 303 300 341 20 41 70 118 105 38 140 179 190 190 192 188 160 130 129 99 50 16 323 340 336 15 319 309 306 305 325 285 241 317 321
245 255 248 261 258 252 258 263 284 299 293 315 331 347 2 96 102 83 60 43 60 155 178 176 161 149 148 145 86 18 12 23 344 47 351 9 249 268 301 275 221 310 323 317
242 254 249 246 252 264 255 254 264 274 283 312 332 340 338 78 89 66 43 32 32 38 63 95 126 137 138 142 68 23 11 13 354 3 9 316 264 230 270 287 241 311 307 317
242 245 249 253 259 265 262 256 263 269 278 284 302 325 343 44 72 50 44 28 30 32 45 75 99 114 105 42 4 349 354 352 338 325 321 336 195 307 315 285 291 314 307 319
240 247 246 249 255 271 269 242 259 261 270 278 284 298 250 210 42 6 25 30 27 38 48 59 62 55 47 14 1 8 5 7 6 3 3 351 332 326 318 288 298 320 318 322
234 248 249 250 254 264 273 249 247 260 267 278 279 269 223 205 194 353 56 42 37 33 38 42 49 37 22 15 16 15 17 23 14 12 8 11 8 1 3 347 332 333 332 329
239 247 250 249 250 257 266 264 263 270 270 275 281 276 236 230 197 160 74 33 21 29 38 41 36 24 21 20 20 20 24 23 20 14 12 9 4 1 356 350 340 334 331 328
259 239 242 249 247 253 260 262 267 276 270 276 274 277 225 226 229 205 159 42 24 30 50 31 18 14 24 29 32 30 27 25 20 17 14 11 9 0 348 340 336 334 333 334
263 243 238 246 250 248 259 261 269 277 286 292 276 260 213 209 243 182 134 98 58 61 48 29 27 32 30 33 32 29 30 27 21 14 7 1 356 350 346 343 340 339 341 339
261 253 241 242 245 259 256 254 263 272 280 301 258 210 203 191 174 292 299 110 95 62 49 45 38 34 32 30 28 26 20 16 9 1 355 351 347 343 342 341 342 342 341 340
256 261 246 251 251 251 258 261 267 271 273 276 240 202 186 194 233 238 242 104 55 47 54 43 31 24 21 19 17 8 1 355 348 346 345 345 346 345 344 343 342 342 342 342
251 255 246 252 256 263 268 265 266 260 265 244 211 198 194 210 249 203 174 118 68 59 50 34 26 16 14 15 8 359 355 349 349 348 347 345 345 345 346 345 346 346 345 346
250 251 252 252 257 261 269 278 263 265 271 225 235 226 219 214 160 157 147 119 80 45 18 16 17 5 4 4 0 353 350 350 349 346 345 345 346 347 347 349 348 348 348 345
247 256 254 254 255 278 287 275 271 268 246 225 211 210 185 176 169 155 140 108 26 11 2 5 2 356 358 358 357 350 349 349 346 346 346 347 348 349 350 349 348 349 347 347
250 252 262 262 267 266 272 281 276 216 204 200 193 185 178 169 169 173 170 338 357 5 359 355 353 349 351 356 354 353 350 349 348 347 347 348 348 348 351 351 352 350 350 351
247 250 252 262 265 263 276 258 225 221 182 168 172 172 170 165 175 171 158 359 346 346 346 346 347 350 351 353 352 353 352 351 349 350 351 351 352 353 352 353 356 353 356 358
251 248 247 250 248 256 251 239 209 182 173 165 163 177 182 161 157 157 1 341 349 352 352 352 351 352 351 351 353 357 357 358 355 354 355 355 354 354 354 352 351 357 356 354